Weather History for PAPH - October, 2013

Change the Weather History Date:

Friday, October 4, 2013

  Actual Average Record
Temperature  
Mean Temperature 40 °F -  
Max Temperature 44 °F 46 °F 55 °F (2012)
Min Temperature 37 °F 36 °F 30 °F (1996)
Degree Days  
Heating Degree Days 24    
Moisture  
Dew Point 31 °F    
Average Humidity 66    
Maximum Humidity 75    
Minimum Humidity 54    
Precipitation  
Precipitation 0.01 in - - ()
Sea Level Pressure  
Sea Level Pressure 29.85 in    
Wind  
Wind Speed 15 mph (WNW)    
Max Wind Speed 21 mph    
Max Gust Speed 26 mph    
Visibility 10 miles    
Events      
Averages and records for this station are not official NWS values.
T = Trace of Precipitation, MM = Missing Value Source: NWS Daily Summary

Daily Weather History Graph

Daily Weather History Graph

Search for Another Location

Airport or City:

Trip Planner

Search our weather history database for the weather conditions in past years. The results will help you decide how hot, cold, wet, or windy it might be!

Date:

Astronomy

Oct. 04, 2013 Rise Set
Actual Time 8:45 AM AKDT 7:59 PM AKDT
Civil Twilight 8:07 AM AKDT 8:37 PM AKDT
Nautical Twilight 7:22 AM AKDT 9:21 PM AKDT
Astronomical Twilight 6:37 AM AKDT 10:07 PM AKDT
Moon 8:37 AM AKDT (10/4) 7:38 PM AKDT (10/4)
Length of Visible Light 12h 30m
Length of Day
11h 14m
Waning Crescent, 0% of the Moon is Illuminated
Oct 4
Waning Crescent
Oct 4
New
Oct 11
First Quarter
Oct 18
Full
Oct 26
Last Quarter

Hourly Weather History & Observations

Time (AKDT) Temp. Windchill Dew Point Humidity Pressure Visibility Wind Dir Wind Speed Gust Speed Precip Events Conditions
12:16 AM 42.8 °F 34.3 °F 33.8 °F 70% 29.65 in 10.0 mi NW 19.6 mph 26.5 mph N/A   Overcast
12:36 AM 42.8 °F 34.0 °F 32.0 °F 66% 29.66 in 10.0 mi NNW 20.7 mph 25.3 mph N/A   Overcast
12:56 AM 42.8 °F 34.8 °F 32.0 °F 66% 29.66 in 10.0 mi NW 17.3 mph 25.3 mph N/A   Overcast
1:16 AM 42.8 °F 34.3 °F 33.8 °F 70% 29.67 in 10.0 mi NW 19.6 mph - N/A   Overcast
1:36 AM 41.0 °F 32.2 °F 32.0 °F 70% 29.68 in 10.0 mi NW 18.4 mph - N/A   Overcast
1:56 AM 41.0 °F 32.2 °F 32.0 °F 70% 29.68 in 10.0 mi NW 18.4 mph - N/A   Overcast
2:16 AM 41.0 °F 32.8 °F 32.0 °F 70% 29.69 in 10.0 mi NW 16.1 mph 24.2 mph N/A   Overcast
2:36 AM 41.0 °F 32.8 °F 32.0 °F 70% 29.70 in 10.0 mi NW 16.1 mph 21.9 mph N/A   Overcast
2:56 AM 42.8 °F 34.5 °F 32.0 °F 66% 29.71 in 10.0 mi NW 18.4 mph - N/A   Overcast
3:16 AM 42.8 °F 35.1 °F 32.0 °F 66% 29.72 in 10.0 mi NW 16.1 mph - N/A   Overcast
3:36 AM 42.8 °F 35.1 °F 32.0 °F 66% 29.72 in 10.0 mi NW 16.1 mph - N/A   Overcast
3:56 AM 42.8 °F 35.4 °F 32.0 °F 66% 29.73 in 10.0 mi WNW 15.0 mph 20.7 mph N/A   Overcast
4:16 AM 42.8 °F 36.2 °F 32.0 °F 66% 29.73 in 10.0 mi NW 12.7 mph - N/A   Overcast
4:36 AM 42.8 °F 35.1 °F 32.0 °F 66% 29.73 in 10.0 mi WNW 16.1 mph - N/A   Overcast
4:56 AM 42.8 °F 35.1 °F 32.0 °F 66% 29.74 in 10.0 mi WNW 16.1 mph 20.7 mph N/A   Overcast
5:16 AM 41.0 °F 32.5 °F 30.2 °F 65% 29.75 in 10.0 mi WNW 17.3 mph - N/A   Overcast
5:36 AM 41.0 °F 32.2 °F 30.2 °F 65% 29.76 in 10.0 mi WNW 18.4 mph - N/A   Overcast
5:56 AM 41.0 °F 33.1 °F 30.2 °F 65% 29.76 in 10.0 mi WNW 15.0 mph - N/A   Overcast
6:16 AM 41.0 °F 32.8 °F 30.2 °F 65% 29.77 in 10.0 mi WNW 16.1 mph - N/A   Overcast
6:36 AM 41.0 °F 33.9 °F 28.4 °F 61% 29.78 in 10.0 mi WNW 12.7 mph - N/A   Overcast
6:56 AM 41.0 °F 33.5 °F 28.4 °F 61% 29.79 in 10.0 mi WNW 13.8 mph - N/A   Overcast
7:16 AM 41.0 °F 33.5 °F 28.4 °F 61% 29.80 in 10.0 mi WNW 13.8 mph 18.4 mph N/A   Overcast
7:36 AM 41.0 °F 33.1 °F 28.4 °F 61% 29.80 in 10.0 mi NW 15.0 mph - N/A   Overcast
7:56 AM 39.2 °F 30.8 °F 28.4 °F 65% 29.81 in 10.0 mi WNW 15.0 mph - N/A   Overcast
8:16 AM 39.2 °F 30.8 °F 28.4 °F 65% 29.82 in 10.0 mi WNW 15.0 mph 19.6 mph N/A   Overcast
8:36 AM 39.2 °F 30.2 °F 30.2 °F 70% 29.83 in 10.0 mi WNW 17.3 mph 21.9 mph N/A   Overcast
8:56 AM 39.2 °F 30.5 °F 30.2 °F 70% 29.83 in 9.0 mi NW 16.1 mph - N/A   Overcast
9:16 AM 39.2 °F 30.8 °F 30.2 °F 70% 29.84 in 10.0 mi WNW 15.0 mph - N/A   Overcast
9:36 AM 37.4 °F 28.5 °F 30.2 °F 75% 29.85 in 10.0 mi West 15.0 mph - N/A   Overcast
9:56 AM 39.2 °F 30.5 °F 30.2 °F 70% 29.85 in 10.0 mi WNW 16.1 mph - N/A   Overcast
10:16 AM 39.2 °F 31.2 °F 30.2 °F 70% 29.86 in 9.0 mi WNW 13.8 mph 19.6 mph N/A   Overcast
10:36 AM 39.2 °F 31.2 °F 30.2 °F 70% 29.86 in 10.0 mi WNW 13.8 mph - N/A   Overcast
10:56 AM 39.2 °F 31.6 °F 30.2 °F 70% 29.87 in 10.0 mi WNW 12.7 mph - N/A   Overcast
11:16 AM 39.2 °F 31.6 °F 28.4 °F 65% 29.88 in 10.0 mi WNW 12.7 mph - N/A   Mostly Cloudy
11:36 AM 39.2 °F 31.2 °F 30.2 °F 70% 29.88 in 10.0 mi NW 13.8 mph - N/A   Mostly Cloudy
11:56 AM 41.0 °F 33.5 °F 30.2 °F 65% 29.89 in 10.0 mi WNW 13.8 mph - N/A   Overcast
12:16 PM 39.2 °F 33.0 °F 30.2 °F 70% 29.90 in 5.0 mi West 9.2 mph - N/A   Overcast
12:36 PM 39.2 °F 31.6 °F 32.0 °F 75% 29.90 in 8.0 mi West 12.7 mph - 0.01 in   Overcast
12:56 PM 39.2 °F 31.6 °F 30.2 °F 70% 29.90 in 10.0 mi WNW 12.7 mph - 0.01 in   Overcast
1:16 PM 42.8 °F 35.4 °F 33.8 °F 70% 29.90 in 10.0 mi West 15.0 mph - N/A   Overcast
1:36 PM 42.8 °F 36.6 °F 33.8 °F 70% 29.91 in 10.0 mi WNW 11.5 mph - N/A   Overcast
1:56 PM 41.0 °F 34.3 °F 30.2 °F 65% 29.92 in 10.0 mi West 11.5 mph - N/A   Mostly Cloudy
2:16 PM 42.8 °F 36.2 °F 32.0 °F 66% 29.92 in 10.0 mi WNW 12.7 mph 16.1 mph N/A   Mostly Cloudy
2:36 PM 42.8 °F 36.2 °F 32.0 °F 66% 29.93 in 10.0 mi West 12.7 mph - N/A   Overcast
2:56 PM 41.0 °F 34.7 °F 30.2 °F 65% 29.93 in 10.0 mi WNW 10.4 mph - N/A   Overcast
3:16 PM 41.0 °F 34.3 °F 30.2 °F 65% 29.93 in 10.0 mi West 11.5 mph - N/A   Overcast
3:36 PM 41.0 °F 33.9 °F 30.2 °F 65% 29.93 in 10.0 mi West 12.7 mph - N/A   Overcast
3:56 PM 42.8 °F 36.2 °F 32.0 °F 66% 29.93 in 10.0 mi West 12.7 mph - N/A   Mostly Cloudy
4:16 PM 41.0 °F 35.2 °F 30.2 °F 65% 29.94 in 10.0 mi West 9.2 mph - N/A   Scattered Clouds
4:36 PM 42.8 °F 35.8 °F 30.2 °F 61% 29.94 in 10.0 mi WNW 13.8 mph - N/A   Overcast
4:56 PM 42.8 °F 36.6 °F 30.2 °F 61% 29.94 in 10.0 mi West 11.5 mph 17.3 mph N/A   Overcast
5:16 PM 42.8 °F 36.6 °F 30.2 °F 61% 29.94 in 10.0 mi West 11.5 mph - N/A   Overcast
5:36 PM 39.2 °F 33.0 °F 30.2 °F 70% 29.95 in 8.0 mi WNW 9.2 mph - N/A   Overcast
5:56 PM 41.0 °F 34.7 °F 28.4 °F 61% 29.95 in 10.0 mi West 10.4 mph - N/A   Overcast
6:16 PM 41.0 °F 35.2 °F 30.2 °F 65% 29.94 in 10.0 mi West 9.2 mph - N/A   Overcast
6:36 PM 41.0 °F 34.3 °F 30.2 °F 65% 29.94 in 10.0 mi WNW 11.5 mph - N/A   Overcast
6:56 PM 41.0 °F 34.7 °F 30.2 °F 65% 29.94 in 10.0 mi WNW 10.4 mph - N/A   Overcast
7:16 PM 41.0 °F 34.7 °F 30.2 °F 65% 29.94 in 10.0 mi West 10.4 mph - N/A   Overcast
7:36 PM 41.0 °F 34.7 °F 30.2 °F 65% 29.94 in 10.0 mi West 10.4 mph 16.1 mph N/A   Overcast
7:56 PM 41.0 °F 35.2 °F 30.2 °F 65% 29.94 in 10.0 mi West 9.2 mph - N/A   Overcast
8:16 PM 39.2 °F 32.5 °F 30.2 °F 70% 29.94 in 10.0 mi West 10.4 mph - N/A   Overcast
8:36 PM 41.0 °F 34.3 °F 30.2 °F 65% 29.95 in 10.0 mi West 11.5 mph - N/A   Overcast
8:56 PM 39.2 °F 31.6 °F 30.2 °F 70% 29.94 in 10.0 mi West 12.7 mph - N/A   Overcast
9:16 PM 39.2 °F 32.5 °F 30.2 °F 70% 29.95 in 10.0 mi West 10.4 mph - N/A   Overcast
9:36 PM 39.2 °F 33.0 °F 30.2 °F 70% 29.95 in 10.0 mi West 9.2 mph - N/A   Overcast
9:56 PM 39.2 °F 33.0 °F 30.2 °F 70% 29.95 in 10.0 mi West 9.2 mph - N/A   Overcast
10:16 PM 39.2 °F 32.5 °F 30.2 °F 70% 29.95 in 10.0 mi WSW 10.4 mph - N/A   Overcast
10:36 PM 39.2 °F 33.0 °F 30.2 °F 70% 29.95 in 10.0 mi West 9.2 mph - N/A   Overcast
10:56 PM 39.2 °F 33.0 °F 28.4 °F 65% 29.95 in 10.0 mi West 9.2 mph - N/A   Overcast
11:16 PM 39.2 °F 33.6 °F 30.2 °F 70% 29.94 in 10.0 mi WSW 8.1 mph - N/A   Overcast
11:36 PM 39.2 °F 32.5 °F 30.2 °F 70% 29.93 in 10.0 mi WSW 10.4 mph - N/A   Overcast
11:56 PM 39.2 °F 33.0 °F 28.4 °F 65% 29.92 in 10.0 mi WSW 9.2 mph - N/A   Overcast